Weather Roundup
Issued by NWS Chicago, IL

Home | Current Version | Previous Version | Text Only | Print | Product List | Glossary On
Versions: 1 2 3 4 5 6 7 8 9 10 11 12 13 14 15 16 17 18 19 20 21 22 23 24 25 26 27 28 29 30 31 32 33 34 35 36 37 38 39 40 41 42 43 44 45 46 47 48 49 50
000
NZUS59 KLOT 180512
HRRLOT

CHICAGO AREA WEATHER ROUNDUP
NATIONAL WEATHER SERVICE CHICAGO/ROMEOVILLE IL
1100 PM CST TUE JAN 17 2017

NOTE: "FAIR" INDICATES FEW OR NO CLOUDS BELOW 12,000 FEET WITH NO
SIGNIFICANT WEATHER AND/OR OBSTRUCTIONS TO VISIBILITY.

* THESE STATIONS ARE NOT UNDER NWS QUALITY CONTROL. THEY ALSO MAY NOT
  REPORT WEATHER SUCH AS PRECIPITATION OR FOG.

ILZ005-006-012>014-019>023-180600-
NORTHEAST ILLINOIS

CITY           SKY/WX    TMP DP  RH WIND       PRES   REMARKS
OHARE          CLOUDY    35  33  92 W13       29.99S WCI  26
MIDWAY         CLOUDY    34  34 100 W10       30.01R FOG     WCI  26
AURORA         CLOUDY    35  33  92 W12       30.02R FOG     WCI  27
LANSING*       CLOUDY    35  35 100 W12       30.01S FOG     WCI  26
JOLIET*        CLOUDY    36  35  97 W8        30.03F FOG
WAUKEGAN       CLOUDY    34  33  96 VRB6      29.98R FOG     WCI  29
DUPAGE AIRPORT CLOUDY    34  32  92 W12       30.00R FOG     WCI  25
WHEELING       CLOUDY    35  32  88 W7        30.00S WCI  29
KANKAKEE*      CLOUDY    35  34  96 W12       30.05S FOG     WCI  26
MORRIS*        CLOUDY    34  33  96 W13       30.03S FOG     WCI  25
LEWIS AIRPORT* CLOUDY    34  34 100 W10       30.02S FOG     WCI  26
NORTHERLY ISL    N/A     35  33  92 W13         N/A  WCI  26
$$

WIZ051-052-058>065-066-070>072-180600-
SOUTHEAST WISCONSIN

CITY           SKY/WX    TMP DP  RH WIND       PRES   REMARKS
MILWAUKEE      CLOUDY    36  33  89 W8        29.96R
KENOSHA*       CLOUDY    34  33  96 W9        29.97R FOG     WCI  27
RACINE*        CLOUDY    35  33  92 W9        29.98R WCI  28
WAUKESHA       CLOUDY    32  32 100 W8        29.97R FOG     WCI  25
WEST BEND      CLOUDY    32  32 100 W9        29.96R FOG     WCI  24
$$

INZ001>003-010>013-019-020-180600-
NORTHWEST INDIANA

CITY           SKY/WX    TMP DP  RH WIND       PRES   REMARKS
GARY*          CLOUDY    37  35  93 W8        30.01F FOG
MICHIGAN CITY* NOT AVBL
RENSSELAER*    NOT AVBL
VALPARAISO     CLOUDY    36  34  92 W13       30.01S
$$

LMZ740>746-180600-
SOUTHERN LAKE MICHIGAN

STATION/POSITION TIME  SKY/WX   TEMP WIND        PRES    VSBY
                                AIR  DIR/SP/G
                 (UTC)          (F)  (DEG/KT/KT) (MB)    (MI)
HARRISON CRIB    0440            37  270/ 16/ 18   N/A
BURNHAM HARBOR   0500            35  270/  7/ 13   N/A
CALUMET HARBOR   0448            35  230/  8/ 11 1015.4R
BURNS HARBOR     0440            35  260/ 16/ 18 1016.3F
MICHIGAN CITY    NOT AVBL
$$

ABBREVIATIONS USED IN REMARKS
   TC - TEMPERATURE IN CELSIUS
  WCI - WIND CHILL INDEX
   HX - HEAT INDEX
  VSB - VISIBILITY
$$




USA.gov is the U.S. government's official web portal to all federal, state and local government web resources and services.